Tiempo cada hora Barnowiec

Hoy, 14 Mayo, Viernes

Tiempo Temperatura Precipitaciones Viento Presión Humedad
00:00 +12°C° 0 mm 2 mps 739 mmHg 82%
01:00 +10°C° 0 mm 2 mps 739 mmHg 88%
02:00 +10°C° 0 mm 2 mps 739 mmHg 88%
03:00 +10°C° 0 mm 2 mps 739 mmHg 89%
04:00 +9°C° 0 mm 2 mps 739 mmHg 89%
05:00 +10°C° 0 mm 2 mps 739 mmHg 81%
06:00 +13°C° 0 mm 2 mps 739 mmHg 73%
07:00 +14°C° 0 mm 2 mps 739 mmHg 65%
08:00 +15°C° 0 mm 2 mps 739 mmHg 60%
09:00 +16°C° 0 mm 2 mps 739 mmHg 55%
10:00 +17°C° 0 mm 2 mps 739 mmHg 50%
11:00 +18°C° 0 mm 2 mps 739 mmHg 49%
12:00 +18°C° 0 mm 3 mps 739 mmHg 48%
13:00 +19°C° 0 mm 3 mps 739 mmHg 46%
14:00 +18°C° 0 mm 3 mps 739 mmHg 49%
15:00 +18°C° 0 mm 3 mps 739 mmHg 51%
16:00 +17°C° 0 mm 3 mps 740 mmHg 53%
17:00 +16°C° 0 mm 3 mps 740 mmHg 60%
18:00 +14°C° 0 mm 2 mps 740 mmHg 68%
19:00 +13°C° 0 mm 2 mps 740 mmHg 75%
20:00 +12°C° 0.1 mm 1 mps 740 mmHg 79%
21:00 +11°C° 0.1 mm 1 mps 740 mmHg 82%
22:00 +10°C° 0.1 mm 0 mps 741 mmHg 86%
23:00 +11°C° 0 mm 1 mps 741 mmHg 87%

Mañana, 15 Mayo, Sábado

Tiempo Temperatura Precipitaciones Viento Presión Humedad
00:00 +11°C° 0 mm 1 mps 741 mmHg 88%
01:00 +11°C° 0 mm 1 mps 741 mmHg 88%
02:00 +11°C° 0 mm 1 mps 741 mmHg 90%
03:00 +11°C° 0 mm 1 mps 741 mmHg 92%
04:00 +11°C° 0 mm 1 mps 741 mmHg 93%
05:00 +10°C° 0 mm 2 mps 741 mmHg 92%
06:00 +10°C° 0 mm 2 mps 742 mmHg 92%
07:00 +10°C° 0 mm 3 mps 742 mmHg 91%
08:00 +10°C° 0 mm 3 mps 742 mmHg 89%
09:00 +10°C° 0 mm 3 mps 742 mmHg 87%
10:00 +10°C° 0 mm 3 mps 743 mmHg 86%
11:00 +11°C° 0 mm 3 mps 743 mmHg 80%
12:00 +12°C° 0 mm 3 mps 743 mmHg 75%
13:00 +13°C° 0 mm 3 mps 743 mmHg 70%
14:00 +15°C° 0 mm 2 mps 743 mmHg 62%
15:00 +16°C° 0 mm 2 mps 742 mmHg 54%
16:00 +18°C° 0 mm 2 mps 742 mmHg 46%
17:00 +16°C° 0 mm 2 mps 742 mmHg 53%
18:00 +15°C° 0 mm 2 mps 742 mmHg 59%
19:00 +14°C° 0 mm 2 mps 742 mmHg 66%
20:00 +13°C° 0.1 mm 2 mps 742 mmHg 71%
21:00 +13°C° 0.1 mm 2 mps 742 mmHg 76%
22:00 +12°C° 0.1 mm 2 mps 742 mmHg 81%
23:00 +12°C° 0.1 mm 2 mps 742 mmHg 84%

Pasado mañana, 16 Mayo, Domingo

Tiempo Temperatura Precipitaciones Viento Presión Humedad
00:00 +10°C° 0.1 mm 3 mps 742 mmHg 87%
01:00 +10°C° 0.1 mm 3 mps 742 mmHg 89%
02:00 +10°C° 0 mm 3 mps 742 mmHg 89%
03:00 +10°C° 0 mm 2 mps 741 mmHg 89%
04:00 +9°C° 0 mm 2 mps 741 mmHg 89%
05:00 +10°C° 0 mm 2 mps 741 mmHg 88%
06:00 +11°C° 0 mm 3 mps 741 mmHg 86%
07:00 +12°C° 0 mm 3 mps 741 mmHg 84%
08:00 +12°C° 1.4 mm 3 mps 741 mmHg 87%
09:00 +11°C° 1.4 mm 3 mps 741 mmHg 91%
10:00 +12°C° 1.4 mm 2 mps 740 mmHg 94%
11:00 +12°C° 0.2 mm 2 mps 741 mmHg 92%
12:00 +12°C° 0.2 mm 2 mps 741 mmHg 91%
13:00 +12°C° 0.2 mm 2 mps 741 mmHg 89%
14:00 +13°C° 0.1 mm 2 mps 741 mmHg 81%
15:00 +14°C° 0.1 mm 2 mps 740 mmHg 73%
16:00 +15°C° 0.1 mm 2 mps 740 mmHg 65%
17:00 +14°C° 0.1 mm 2 mps 740 mmHg 70%
18:00 +14°C° 0.1 mm 1 mps 740 mmHg 75%
19:00 +13°C° 0.1 mm 1 mps 740 mmHg 80%
20:00 +12°C° 0 mm 1 mps 740 mmHg 82%
21:00 +11°C° 0 mm 1 mps 741 mmHg 85%
22:00 +10°C° 0 mm 1 mps 741 mmHg 87%
23:00 +9°C° 0 mm 2 mps 741 mmHg 88%

17 Mayo, Lunes

Tiempo Temperatura Precipitaciones Viento Presión Humedad
00:00 +8°C° 0 mm 2 mps 741 mmHg 89%
01:00 +8°C° 0 mm 2 mps 740 mmHg 89%
02:00 +8°C° 0 mm 2 mps 740 mmHg 90%
03:00 +8°C° 0 mm 2 mps 740 mmHg 91%
04:00 +8°C° 0 mm 2 mps 740 mmHg 92%
05:00 +9°C° 0 mm 3 mps 741 mmHg 88%
06:00 +10°C° 0 mm 3 mps 741 mmHg 83%
07:00 +12°C° 0 mm 3 mps 741 mmHg 78%
08:00 +13°C° 0.2 mm 3 mps 741 mmHg 72%
09:00 +14°C° 0.2 mm 4 mps 741 mmHg 65%
10:00 +15°C° 0.2 mm 4 mps 741 mmHg 59%
11:00 +16°C° 0.4 mm 3 mps 741 mmHg 59%
12:00 +16°C° 0.4 mm 3 mps 741 mmHg 59%
13:00 +16°C° 0.4 mm 3 mps 741 mmHg 59%
14:00 +16°C° 0.3 mm 2 mps 741 mmHg 58%
15:00 +17°C° 0.3 mm 2 mps 741 mmHg 58%
16:00 +17°C° 0.3 mm 2 mps 741 mmHg 58%
17:00 +15°C° 0.4 mm 2 mps 741 mmHg 66%
18:00 +14°C° 0.4 mm 2 mps 741 mmHg 74%
19:00 +13°C° 0.4 mm 2 mps 741 mmHg 82%
20:00 +12°C° 0.1 mm 2 mps 741 mmHg 86%
21:00 +10°C° 0.1 mm 2 mps 741 mmHg 90%
22:00 +10°C° 0.1 mm 2 mps 741 mmHg 93%
23:00 +9°C° 0.1 mm 2 mps 741 mmHg 94%

18 Mayo, Martes

Tiempo Temperatura Precipitaciones Viento Presión Humedad
00:00 +9°C° 0.1 mm 2 mps 741 mmHg 95%
01:00 +9°C° 0.1 mm 2 mps 741 mmHg 96%
02:00 +9°C° 0.2 mm 2 mps 741 mmHg 96%
03:00 +9°C° 0.2 mm 2 mps 741 mmHg 96%
04:00 +9°C° 0.2 mm 2 mps 741 mmHg 96%
05:00 +9°C° 0 mm 3 mps 742 mmHg 94%
06:00 +10°C° 0 mm 3 mps 742 mmHg 92%
07:00 +10°C° 0 mm 4 mps 742 mmHg 91%
08:00 +10°C° 0 mm 4 mps 743 mmHg 89%
09:00 +10°C° 0 mm 4 mps 743 mmHg 87%
10:00 +10°C° 0 mm 4 mps 743 mmHg 85%
11:00 +11°C° 0.2 mm 4 mps 743 mmHg 80%
12:00 +13°C° 0.2 mm 4 mps 743 mmHg 74%
13:00 +14°C° 0.2 mm 4 mps 743 mmHg 69%
14:00 +13°C° 0.4 mm 4 mps 743 mmHg 71%
15:00 +13°C° 0.4 mm 4 mps 743 mmHg 74%
16:00 +13°C° 0.4 mm 4 mps 743 mmHg 76%
17:00 +12°C° 0.2 mm 3 mps 743 mmHg 80%
18:00 +11°C° 0.2 mm 3 mps 744 mmHg 83%
19:00 +12°C° 0.2 mm 2 mps 744 mmHg 87%
20:00 +10°C° 0 mm 2 mps 744 mmHg 90%
21:00 +9°C° 0 mm 2 mps 744 mmHg 92%
22:00 +8°C° 0 mm 2 mps 744 mmHg 94%
23:00 +8°C° 0 mm 2 mps 744 mmHg 95%

19 Mayo, Miércoles

Tiempo Temperatura Precipitaciones Viento Presión Humedad
00:00 +7°C° 0 mm 2 mps 744 mmHg 96%
01:00 +7°C° 0 mm 2 mps 744 mmHg 97%
02:00 +7°C° 0 mm 2 mps 744 mmHg 97%
03:00 +7°C° 0 mm 2 mps 744 mmHg 97%
04:00 +7°C° 0 mm 2 mps 744 mmHg 97%
05:00 +7°C° 0 mm 2 mps 744 mmHg 96%
06:00 +8°C° 0 mm 3 mps 744 mmHg 94%
07:00 +9°C° 0 mm 3 mps 743 mmHg 92%
08:00 +9°C° 0.1 mm 3 mps 743 mmHg 90%
09:00 +10°C° 0.1 mm 4 mps 743 mmHg 87%
10:00 +11°C° 0.1 mm 4 mps 743 mmHg 85%
11:00 +11°C° 0.2 mm 4 mps 743 mmHg 80%
12:00 +12°C° 0.2 mm 5 mps 743 mmHg 76%
13:00 +12°C° 0.2 mm 5 mps 743 mmHg 71%
14:00 +12°C° 0.1 mm 5 mps 743 mmHg 68%
15:00 +13°C° 0.1 mm 5 mps 743 mmHg 65%
16:00 +13°C° 0.1 mm 5 mps 743 mmHg 61%
17:00 +12°C° 0 mm 5 mps 743 mmHg 67%
18:00 +10°C° 0 mm 4 mps 743 mmHg 73%
19:00 +8°C° 0 mm 4 mps 743 mmHg 78%
20:00 +8°C° 0 mm 3 mps 743 mmHg 83%
21:00 +7°C° 0 mm 3 mps 743 mmHg 88%
22:00 +5°C° 0 mm 3 mps 743 mmHg 94%
23:00 +5°C° 0 mm 3 mps 743 mmHg 94%
Mostrar más

Necesitamos Su Consentimiento

Meteoprog y nuestros Proveedores de Servicios pueden almacenar y acceder a sus datos personales como cookies, identificadores de dispositivo u otras tecnologías similares de su dispositivo y procesar dichos datos para personalizar contenido y anuncios, además de ofrecer funciones de redes sociales y analizar el tráfico.

  • Almacenar y/o acceder a información en su dispositivo

    Se puede almacenar o acceder a cookies, identificadores de dispositivo u otra información de su dispositivo para los fines anteriormente indicados.

  • Anuncios y contenido personalizados, medición de anuncios y contenido, percepciones del público, y desarrollo de productos

    Los anuncios y el contenido pueden personalizarse en base a su perfil. Se pueden añadir más datos para personalizar mejor los anuncios y contenidos. Se puede medir el rendimiento de los anuncios y contenidos. Se puede obtener la percepción sobre el público que ha visto los anuncios y contenidos. Dichos datos pueden usarse para desarrollar o mejorar la experiencia del usuario, sistemas y software.

Al hacer clic en ‘Estoy De Acuerdo’ usted permitirá el uso de las cookies, identificadores de dispositivo, balizas web u otras tecnologías similares indicadas. Su configuración puede cambiarse desde el navegador de su dispositivo.

Para ciertos fines, los intereses legítimos pueden ser considerados por encima del consentimiento. Puede leer más sobre ello en nuestra Política de Privacidad y Cookies.